Location: Alta Vista
(39.0090°N, 77.1086°W)
Time: 08:58:11
(UTC+00:00)

Daily predictions for brighter satellites

Satellite Brightness Start Highest point End
(mag) Time Altitude Azimuth Time Altitude Azimuth Time Altitude Azimuth
Cosmos 1953 Rocket 3.8 22:48:42 10° S 22:53:11 79° W 22:57:41 10° N
EP 3 4.3 22:51:24 10° SSW 22:53:34 38° ESE 22:55:32 10° NE
SL-8 Rocket 4.2 22:49:38 10° S 22:55:56 85° W 23:02:14 10° N
Cosmos 1356 Rocket 3.8 22:52:06 10° N 22:55:59 39° ENE 22:59:53 10° SSE
ISS -1.2 22:55:42 10° NNW 22:56:45 11° N 22:57:48 10° N
USA 238 DEB 4.2 22:52:35 10° S 22:58:37 38° ESE 23:04:48 10° NE
USA 238 4.2 22:52:43 10° S 22:58:43 38° ESE 23:04:54 10° NE
Cosmos 1727 Rocket 4.2 22:54:09 10° N 23:00:08 50° E 23:06:05 10° SSE
Iridium 96 4.4 22:58:03 10° N 23:00:35 59° W 23:03:17 10° S
Cosmos 1842 Rocket 4.3 22:57:16 10° NNE 23:01:21 33° ENE 23:05:24 10° SE
H-2A R/B 4.3 22:58:37 10° S 23:02:18 42° W 23:06:02 10° NNW
COSMO-SKYMED 1 2.7 22:58:11 10° NNE 23:02:29 56° E 23:06:44 10° S
NOAA 12 4.3 23:02:15 10° S 23:07:29 80° WSW 23:12:45 10° NNW
Cosmos 1939 Rocket 4.0 23:05:51 10° ESE 23:08:57 23° ENE 23:12:08 10° NNE
SL-16 R/B 2.6 23:04:04 10° NNW 23:09:43 71° WSW 23:15:19 10° SSE
USA 116 4.1 23:09:39 10° NE 23:12:25 28° E 23:15:14 10° SSE
Cosmos 2227 4.3 23:07:44 10° S 23:13:19 57° ESE 23:18:56 10° NNE
Cosmos 2297 Rocket 4.5 23:13:00 10° W 23:17:07 20° NW 23:21:15 10° N
CZ-4 R/B 4.4 23:13:32 10° SSE 23:17:35 59° ENE 23:21:38 10° N
Cosmos 2263 Rocket 2.4 23:13:47 10° S 23:19:04 48° ESE 23:24:26 10° NE
USA 102 4.0 23:14:52 10° SE 23:20:23 52° ENE 23:23:06 10° N
Cosmos 2221 2.9 23:17:51 10° N 23:21:56 40° ENE 23:26:00 10° SSE
Cosmos 1076 Rocket 4.3 23:18:50 10° SSE 23:22:36 30° E 23:26:25 10° NNE
Cosmos 1603 4.0 23:17:46 10° N 23:23:08 41° ENE 23:28:23 10° SE
Envisat 3.8 23:20:03 10° S 23:25:01 57° W 23:30:02 10° NNW
Meteor 2-12 Rocket 4.4 23:20:50 10° S 23:26:51 76° E 23:32:55 10° N
Cosmos 2251 Rocket 4.2 23:22:24 10° NNW 23:27:38 60° WSW 23:32:52 10° S
Cosmos 1892 4.3 23:25:11 10° SE 23:27:05 16° E 23:27:05 16° E
Cosmos 1821 Rocket 4.1 23:24:34 10° SSE 23:30:44 56° E 23:36:51 10° NNE
Cosmos 1437 3.3 23:28:00 10° SSE 23:30:44 32° E 23:31:57 23° NE
NOAA 11 4.2 23:26:13 10° SSE 23:31:34 56° ENE 23:36:55 10° N
H-2A R/B 3.8 23:34:57 13° NE 23:34:57 13° NE 23:36:07 10° NNE
Cosmos 2058 3.5 23:30:14 10° SSE 23:33:58 33° E 23:37:40 10° NNE
STARLINK-46 3.3 23:31:39 10° SSW 23:33:58 30° SE 23:34:18 29° ESE
ATLAS 3B R/B 3.7 23:35:10 10° SSE 23:40:10 23° ESE 23:41:50 20° E
STARLINK-67 3.6 23:40:19 10° WSW 23:42:40 34° NW 23:43:33 25° N
Meteor 1-27 4.3 23:42:07 10° N 23:47:42 83° W 23:53:18 10° S
Cosmos 1371 Rocket 3.9 23:44:44 10° SSW 23:49:53 79° ESE 23:55:07 10° NNE
Cosmos 407 Rocket 3.5 23:44:50 10° N 23:50:00 54° ENE 23:55:03 10° SE
USA 267 4.4 23:44:19 10° NNE 23:50:04 34° NNW 23:55:51 10° W
Cosmos 1943 3.3 23:44:46 10° NNW 23:50:18 53° ENE 23:55:49 10° SE
NOSS 3-2 (C) 3.5 23:46:03 10° S 23:51:25 49° ESE 23:54:52 24° NE
Cosmos 1190 Rocket 4.2 23:47:58 10° N 23:53:08 49° ENE 23:58:16 10° SE
CSL-04 Debris 4.1 23:49:08 10° SSE 23:54:31 89° WSW 23:59:57 10° NNW
Atlas Centaur 2 3.4 23:51:25 10° WSW 23:54:38 22° S 23:57:48 12° SE
CZ-4 R/B 2.2 23:51:12 10° S 23:55:12 54° W 23:59:19 10° NNW
GPS 2-05 Rocket1 3.2 23:53:19 10° WSW 23:55:30 34° S 23:55:30 34° S
